This demonstration page uses our WeatherBlox Daily Observations layout. Learn more.

Hourly Observations for January 24, 2021

Temp ( °F °C ) Dew Point ( °F °C ) Humidity (%) Winds ( mph kmh ) Pressure ( in mb ) Visibility ( mi km ) Precip ( " mm )
12:53 am 00:53 Mostly Clear 14 -10 9 -12.8 80 80 ENE 8 13 29.92 1013 10 16.0934 0 0
1:53 am 01:53 Mostly Cloudy 13 -10.6 9 -12.8 84 84 ENE 12 19 29.91 1013 10 16.0934 0 0
2:53 am 02:53 Partly Cloudy 13 -10.6 9 -12.8 84 84 ENE 14 22 29.89 1012 10 16.0934 0 0
3:53 am 03:53 Partly Cloudy 12 -11.1 8 -13.3 84 84 ENE 13 20 29.88 1012 10 16.0934 0 0
4:53 am 04:53 Mostly Cloudy 11 -11.7 7 -13.9 84 84 ENE 12 19 29.88 1012 10 16.0934 0 0
5:53 am 05:53 Cloudy 11 -11.7 7 -13.9 84 84 ENE 10 17 29.88 1012 10 16.0934 0 0
6:53 am 06:53 Cloudy 12 -11.1 8 -13.3 84 84 ENE 12 19 29.89 1012 10 16.0934 0 0
7:53 am 07:53 Partly Cloudy 11 -11.7 7 -13.9 84 84 ENE 12 19 29.9 1012 10 16.0934 0 0
8:53 am 08:53 Sunny 12 -11.1 8 -13.3 84 84 E 10 17 29.9 1013 10 16.0934 0 0
9:53 am 09:53 Sunny 15 -9.4 10 -12.2 80 80 E 10 17 29.9 1013 10 16.0934 0 0
10:53 am 10:53 Sunny 18 -7.8 11 -11.7 74 74 ENE 8 13 29.9 1013 10 16.0934 0 0
11:53 am 11:53 Sunny 20 -6.7 11 -11.7 68 68 NE 8 13 29.88 1012 10 16.0934 0 0
12:53 pm 12:53 Sunny 22 -5.6 11 -11.7 63 63 ENE 7 11 29.87 1011 10 16.0934 0 0
1:53 pm 13:53 Sunny 22 -5.6 11 -11.7 63 63 NE 7 11 29.87 1011 10 16.0934 0 0
2:53 pm 14:53 Sunny 22 -5.6 10 -12.2 60 60 ENE 10 17 29.86 1011 10 16.0934 0 0
3:53 pm 15:53 Sunny 20 -6.7 10 -12.2 65 65 ENE 15 24 29.88 1012 10 16.0934 0 0
4:53 pm 16:53 Sunny 17 -8.3 9 -12.8 70 70 E 14 22 29.91 1013 10 16.0934 0 0
5:53 pm 17:53 Clear 14 -10 8 -13.3 77 77 E 15 24 29.92 1013 10 16.0934 0 0
6:53 pm 18:53 Mostly Cloudy 13 -10.6 7 -13.9 77 77 E 16 26 29.92 1013 10 16.0934 0 0
7:53 pm 19:53 Mostly Cloudy 11 -11.7 7 -13.9 84 84 ENE 20 31 29.93 1014 10 16.0934 0 0
8:53 pm 20:53 Cloudy 11 -11.7 6 -14.4 81 81 ENE 17 28 29.94 1014 10 16.0934 0 0
9:53 pm 21:53 Partly Cloudy 9 -12.8 4 -15.6 80 80 E 17 28 29.96 1014 10 16.0934 0 0
10:53 pm 22:53 Partly Cloudy 8 -13.3 4 -15.6 83 83 ENE 18 30 29.96 1015 10 16.0934 0 0
11:53 pm 23:53 Partly Cloudy 7 -13.9 3 -16.1 84 84 ENE 20 31 29.96 1015 10 16.0934 0 0

Powered by AerisWeather